Time,TemperatureF,DewpointF,PressureIn,WindDirection,WindDirectionDegrees,WindSpeedMPH,WindSpeedGustMPH,Humidity,HourlyPrecipIn,Conditions,Clouds,dailyrainin,SoftwareType,DateUTC
2013-01-27 00:03:00,52.0,49.0,30.20,West,274,0.0,0.0,91,0.00,,,0.00,,2013-01-27 05:03:00,
2013-01-27 00:12:00,52.0,49.0,30.20,West,274,0.0,0.0,91,0.00,,,0.00,,2013-01-27 05:12:00,
2013-01-27 00:22:00,52.0,49.0,30.20,West,274,0.0,0.0,91,0.00,,,0.00,,2013-01-27 05:22:00,
2013-01-27 00:32:00,51.0,48.0,30.20,West,274,0.0,0.0,91,0.00,,,0.00,,2013-01-27 05:32:00,
2013-01-27 00:41:00,51.0,48.0,30.20,West,274,0.0,0.0,91,0.00,,,0.00,,2013-01-27 05:41:00,
2013-01-27 00:52:00,51.0,49.0,30.21,West,274,0.0,0.0,92,0.00,,,0.00,,2013-01-27 05:52:00,
2013-01-27 01:01:00,51.0,49.0,30.21,West,274,0.0,0.0,92,0.00,,,0.00,,2013-01-27 06:01:00,
2013-01-27 01:11:00,51.0,49.0,30.21,West,274,0.0,0.0,92,0.00,,,0.00,,2013-01-27 06:11:00,
2013-01-27 01:21:00,51.0,49.0,30.21,West,274,0.0,0.0,92,0.00,,,0.00,,2013-01-27 06:21:00,
2013-01-27 01:32:00,51.0,49.0,30.21,West,274,0.0,0.0,92,0.00,,,0.00,,2013-01-27 06:32:00,
2013-01-27 01:42:00,51.0,49.0,30.21,West,274,0.0,0.0,92,0.00,,,0.00,,2013-01-27 06:42:00,
2013-01-27 01:52:00,51.0,49.0,30.20,West,274,0.0,0.0,92,0.00,,,0.00,,2013-01-27 06:52:00,
2013-01-27 02:01:00,50.0,48.0,30.21,West,274,0.0,0.0,93,0.00,,,0.00,,2013-01-27 07:01:00,
2013-01-27 02:14:00,50.0,48.0,30.21,West,274,0.0,0.0,93,0.00,,,0.00,,2013-01-27 07:14:00,
2013-01-27 02:21:00,50.0,48.0,30.20,West,274,0.0,0.0,93,0.00,,,0.00,,2013-01-27 07:21:00,
2013-01-27 02:31:00,50.0,48.0,30.20,West,274,0.0,0.0,92,0.00,,,0.00,,2013-01-27 07:31:00,
2013-01-27 02:42:00,50.0,48.0,30.20,West,274,0.0,0.0,92,0.00,,,0.00,,2013-01-27 07:42:00,
2013-01-27 02:52:00,50.0,48.0,30.19,West,274,0.0,0.0,93,0.00,,,0.00,,2013-01-27 07:52:00,
2013-01-27 03:01:00,50.0,48.0,30.19,West,274,0.0,0.0,93,0.00,,,0.00,,2013-01-27 08:01:00,
2013-01-27 03:11:00,50.0,48.0,30.19,West,274,0.0,0.0,93,0.00,,,0.00,,2013-01-27 08:11:00,
2013-01-27 03:22:00,50.0,48.0,30.19,West,274,0.0,0.0,93,0.00,,,0.00,,2013-01-27 08:22:00,
2013-01-27 03:32:00,50.0,48.0,30.20,West,274,0.0,0.0,93,0.00,,,0.00,,2013-01-27 08:32:00,
2013-01-27 03:42:00,50.0,48.0,30.20,West,274,0.0,0.0,93,0.00,,,0.00,,2013-01-27 08:42:00,
2013-01-27 03:52:00,50.0,48.0,30.19,West,274,0.0,0.0,93,0.00,,,0.00,,2013-01-27 08:52:00,
2013-01-27 04:02:00,50.0,48.0,30.19,West,274,0.0,0.0,93,0.00,,,0.00,,2013-01-27 09:02:00,
2013-01-27 04:11:00,50.0,48.0,30.19,West,274,0.0,0.0,93,0.00,,,0.00,,2013-01-27 09:11:00,
2013-01-27 04:21:00,50.0,48.0,30.19,West,274,0.0,0.0,93,0.00,,,0.00,,2013-01-27 09:21:00,
2013-01-27 04:32:00,50.0,48.0,30.19,West,274,0.0,0.0,93,0.00,,,0.00,,2013-01-27 09:32:00,
2013-01-27 04:41:00,50.0,48.0,30.19,West,274,0.0,0.0,93,0.00,,,0.00,,2013-01-27 09:41:00,
2013-01-27 04:52:00,50.0,48.0,30.19,West,274,0.0,0.0,93,0.00,,,0.00,,2013-01-27 09:52:00,
2013-01-27 05:01:00,50.0,48.0,30.19,West,274,0.0,0.0,93,0.00,,,0.00,,2013-01-27 10:01:00,
2013-01-27 05:11:00,50.0,48.0,30.19,West,274,0.0,0.0,93,0.00,,,0.00,,2013-01-27 10:11:00,
2013-01-27 05:21:00,50.0,48.0,30.19,West,274,0.0,0.0,93,0.00,,,0.00,,2013-01-27 10:21:00,
2013-01-27 05:32:00,50.0,48.0,30.19,West,274,0.0,0.0,93,0.00,,,0.00,,2013-01-27 10:32:00,
2013-01-27 05:42:00,50.0,48.0,30.19,West,274,0.0,0.0,93,0.00,,,0.00,,2013-01-27 10:42:00,
2013-01-27 05:51:00,50.0,48.0,30.19,West,274,0.0,0.0,93,0.00,,,0.00,,2013-01-27 10:51:00,
2013-01-27 06:01:00,50.0,48.0,30.19,West,274,0.0,0.0,94,0.00,,,0.00,,2013-01-27 11:01:00,
2013-01-27 06:11:00,50.0,48.0,30.20,West,274,0.0,0.0,94,0.00,,,0.00,,2013-01-27 11:11:00,
2013-01-27 06:21:00,50.0,48.0,30.20,West,274,0.0,0.0,94,0.00,,,0.00,,2013-01-27 11:21:00,
2013-01-27 06:32:00,50.0,48.0,30.20,West,274,0.0,0.0,94,0.00,,,0.00,,2013-01-27 11:32:00,
2013-01-27 06:42:00,50.0,48.0,30.20,West,274,0.0,0.0,94,0.00,,,0.00,,2013-01-27 11:42:00,
2013-01-27 06:52:00,51.0,49.0,30.21,West,274,0.0,0.0,94,0.00,,,0.00,,2013-01-27 11:52:00,
2013-01-27 07:02:00,52.0,51.0,30.21,West,274,0.0,0.0,95,0.00,,,0.00,,2013-01-27 12:02:00,
2013-01-27 07:12:00,52.0,51.0,30.21,West,274,0.0,0.0,95,0.00,,,0.00,,2013-01-27 12:12:00,
2013-01-27 07:22:00,52.0,50.0,30.22,West,274,0.0,0.0,94,0.00,,,0.00,,2013-01-27 12:22:00,
2013-01-27 07:32:00,52.0,50.0,30.22,West,274,0.0,0.0,94,0.00,,,0.00,,2013-01-27 12:32:00,
2013-01-27 07:42:00,52.0,50.0,30.22,West,274,0.0,0.0,94,0.00,,,0.00,,2013-01-27 12:42:00,
2013-01-27 07:52:00,52.0,50.0,30.22,West,274,0.0,0.0,94,0.00,,,0.00,,2013-01-27 12:52:00,
2013-01-27 08:02:00,52.0,51.0,30.23,West,274,0.0,0.0,95,0.00,,,0.00,,2013-01-27 13:02:00,
2013-01-27 08:11:00,52.0,51.0,30.23,West,274,0.0,0.0,95,0.00,,,0.00,,2013-01-27 13:11:00,
2013-01-27 08:22:00,56.0,55.0,30.23,West,274,0.0,1.0,96,0.00,,,0.00,,2013-01-27 13:22:00,
2013-01-27 08:32:00,57.0,56.0,30.24,NW,316,0.0,1.0,96,0.00,,,0.00,,2013-01-27 13:32:00,
2013-01-27 08:42:00,57.0,56.0,30.24,NW,316,0.0,1.0,96,0.00,,,0.00,,2013-01-27 13:42:00,
2013-01-27 08:52:00,59.0,57.0,30.24,ENE,62,0.0,3.0,94,0.00,,,0.00,,2013-01-27 13:52:00,
2013-01-27 09:02:00,60.0,57.0,30.25,NNE,17,3.0,5.0,91,0.00,,,0.00,,2013-01-27 14:02:00,
2013-01-27 09:12:00,60.0,57.0,30.25,NNE,17,3.0,5.0,91,0.00,,,0.00,,2013-01-27 14:12:00,
2013-01-27 09:22:00,63.0,59.0,30.25,ESE,106,2.0,2.0,87,0.00,,,0.00,,2013-01-27 14:22:00,
2013-01-27 09:32:00,65.0,60.0,30.25,NE,46,0.0,4.0,84,0.00,,,0.00,,2013-01-27 14:32:00,
2013-01-27 09:42:00,65.0,60.0,30.25,NE,46,0.0,4.0,84,0.00,,,0.00,,2013-01-27 14:42:00,
2013-01-27 09:53:00,68.0,61.0,30.25,NE,51,1.0,4.0,78,0.00,,,0.00,,2013-01-27 14:53:00,
2013-01-27 10:02:00,69.0,61.0,30.25,WNW,302,0.0,4.0,77,0.00,,,0.00,,2013-01-27 15:02:00,
2013-01-27 10:12:00,69.0,61.0,30.25,WNW,302,0.0,4.0,77,0.00,,,0.00,,2013-01-27 15:12:00,
2013-01-27 10:22:00,71.0,62.0,30.25,ENE,65,0.0,4.0,72,0.00,,,0.00,,2013-01-27 15:22:00,
2013-01-27 10:32:00,72.0,61.0,30.25,ENE,69,2.0,5.0,69,0.00,,,0.00,,2013-01-27 15:32:00,
2013-01-27 10:42:00,72.0,61.0,30.25,ENE,69,2.0,5.0,69,0.00,,,0.00,,2013-01-27 15:42:00,
2013-01-27 10:53:00,74.0,62.0,30.26,East,82,2.0,5.0,66,0.00,,,0.00,,2013-01-27 15:53:00,
2013-01-27 11:02:00,74.0,62.0,30.25,ENE,62,0.0,5.0,66,0.00,,,0.00,,2013-01-27 16:02:00,
2013-01-27 11:12:00,74.0,62.0,30.25,ENE,62,0.0,5.0,66,0.00,,,0.00,,2013-01-27 16:12:00,
2013-01-27 11:22:00,75.0,62.0,30.25,NNE,22,1.0,5.0,64,0.00,,,0.00,,2013-01-27 16:22:00,
2013-01-27 11:32:00,76.0,62.0,30.25,SE,130,2.0,6.0,63,0.00,,,0.00,,2013-01-27 16:32:00,
2013-01-27 11:42:00,76.0,62.0,30.25,SE,130,2.0,6.0,63,0.00,,,0.00,,2013-01-27 16:42:00,
2013-01-27 11:53:00,77.0,63.0,30.25,ENE,78,3.0,4.0,61,0.00,,,0.00,,2013-01-27 16:53:00,
2013-01-27 12:02:00,78.0,63.0,30.24,NE,40,3.0,9.0,60,0.00,,,0.00,,2013-01-27 17:02:00,
2013-01-27 12:12:00,78.0,63.0,30.24,NE,40,3.0,9.0,60,0.00,,,0.00,,2013-01-27 17:12:00,
2013-01-27 12:22:00,79.0,63.0,30.24,NE,52,9.0,9.0,59,0.00,,,0.00,,2013-01-27 17:22:00,
2013-01-27 12:32:00,79.0,63.0,30.24,North,5,5.0,9.0,59,0.00,,,0.00,,2013-01-27 17:32:00,
2013-01-27 12:42:00,79.0,63.0,30.24,North,5,5.0,9.0,59,0.00,,,0.00,,2013-01-27 17:42:00,
2013-01-27 12:53:00,79.0,62.0,30.22,NNE,23,0.0,3.0,57,0.00,,,0.00,,2013-01-27 17:53:00,
2013-01-27 13:02:00,80.0,63.0,30.22,ENE,59,0.0,6.0,56,0.00,,,0.00,,2013-01-27 18:02:00,
2013-01-27 13:12:00,80.0,63.0,30.22,ENE,59,0.0,6.0,56,0.00,,,0.00,,2013-01-27 18:12:00,
2013-01-27 13:22:00,79.0,62.0,30.21,East,82,2.0,6.0,57,0.00,,,0.00,,2013-01-27 18:22:00,
2013-01-27 13:32:00,80.0,63.0,30.20,NE,45,4.0,6.0,57,0.00,,,0.00,,2013-01-27 18:32:00,
2013-01-27 13:42:00,80.0,63.0,30.20,NE,45,4.0,6.0,57,0.00,,,0.00,,2013-01-27 18:42:00,
2013-01-27 13:52:00,81.0,63.0,30.19,ENE,61,1.0,7.0,54,0.00,,,0.00,,2013-01-27 18:52:00,
2013-01-27 14:02:00,81.0,63.0,30.19,South,171,2.0,7.0,54,0.00,,,0.00,,2013-01-27 19:02:00,
2013-01-27 14:12:00,81.0,63.0,30.19,South,171,2.0,7.0,54,0.00,,,0.00,,2013-01-27 19:12:00,
2013-01-27 14:22:00,81.0,62.0,30.18,NNE,32,1.0,6.0,52,0.00,,,0.00,,2013-01-27 19:22:00,
2013-01-27 14:32:00,81.0,62.0,30.18,ENE,60,0.0,6.0,52,0.00,,,0.00,,2013-01-27 19:32:00,
2013-01-27 14:42:00,81.0,62.0,30.18,ENE,60,0.0,6.0,52,0.00,,,0.00,,2013-01-27 19:42:00,
2013-01-27 14:52:00,81.0,61.0,30.17,NE,56,3.0,5.0,51,0.00,,,0.00,,2013-01-27 19:52:00,
2013-01-27 15:02:00,81.0,61.0,30.17,ESE,103,2.0,9.0,50,0.00,,,0.00,,2013-01-27 20:02:00,
2013-01-27 15:12:00,81.0,61.0,30.17,ESE,103,2.0,9.0,50,0.00,,,0.00,,2013-01-27 20:12:00,
2013-01-27 15:22:00,81.0,59.0,30.17,ESE,109,0.0,7.0,48,0.00,,,0.00,,2013-01-27 20:22:00,
2013-01-27 15:33:00,81.0,59.0,30.17,NE,37,3.0,9.0,47,0.00,,,0.00,,2013-01-27 20:33:00,
2013-01-27 15:42:00,81.0,59.0,30.17,NE,37,3.0,9.0,47,0.00,,,0.00,,2013-01-27 20:42:00,
2013-01-27 15:52:00,82.0,60.0,30.17,ENE,74,0.0,3.0,47,0.00,,,0.00,,2013-01-27 20:52:00,
2013-01-27 16:02:00,81.0,60.0,30.17,NNE,32,3.0,6.0,49,0.00,,,0.00,,2013-01-27 21:02:00,
2013-01-27 16:12:00,81.0,60.0,30.17,NNE,32,3.0,6.0,49,0.00,,,0.00,,2013-01-27 21:12:00,
2013-01-27 16:22:00,80.0,60.0,30.17,NE,42,0.0,3.0,50,0.00,,,0.00,,2013-01-27 21:22:00,
2013-01-27 16:33:00,80.0,59.0,30.17,SSE,153,2.0,5.0,49,0.00,,,0.00,,2013-01-27 21:33:00,
2013-01-27 16:42:00,80.0,59.0,30.17,SSE,153,2.0,5.0,49,0.00,,,0.00,,2013-01-27 21:42:00,
2013-01-27 16:52:00,80.0,59.0,30.17,ENE,71,0.0,6.0,49,0.00,,,0.00,,2013-01-27 21:52:00,
2013-01-27 17:02:00,80.0,60.0,30.18,NE,49,0.0,6.0,50,0.00,,,0.00,,2013-01-27 22:02:00,
2013-01-27 17:12:00,80.0,60.0,30.18,NE,49,0.0,6.0,50,0.00,,,0.00,,2013-01-27 22:12:00,
2013-01-27 17:22:00,79.0,60.0,30.18,NE,51,0.0,5.0,52,0.00,,,0.00,,2013-01-27 22:22:00,
2013-01-27 17:32:00,79.0,60.0,30.18,ENE,78,0.0,5.0,52,0.00,,,0.00,,2013-01-27 22:32:00,
2013-01-27 17:42:00,79.0,60.0,30.18,ENE,78,0.0,5.0,52,0.00,,,0.00,,2013-01-27 22:42:00,
2013-01-27 17:52:00,78.0,59.0,30.19,NE,49,0.0,3.0,53,0.00,,,0.00,,2013-01-27 22:52:00,
2013-01-27 18:02:00,78.0,61.0,30.19,NE,38,1.0,5.0,55,0.00,,,0.00,,2013-01-27 23:02:00,
2013-01-27 18:12:00,78.0,61.0,30.19,NE,38,1.0,5.0,55,0.00,,,0.00,,2013-01-27 23:12:00,
2013-01-27 18:22:00,76.0,60.0,30.20,ENE,68,0.0,2.0,57,0.00,,,0.00,,2013-01-27 23:22:00,
2013-01-27 18:32:00,76.0,60.0,30.20,NNE,26,0.0,4.0,58,0.00,,,0.00,,2013-01-27 23:32:00,
2013-01-27 18:42:00,76.0,60.0,30.20,NNE,26,0.0,4.0,58,0.00,,,0.00,,2013-01-27 23:42:00,
2013-01-27 18:53:00,75.0,60.0,30.21,East,80,0.0,1.0,59,0.00,,,0.00,,2013-01-27 23:53:00,
2013-01-27 19:02:00,74.0,59.0,30.21,East,80,0.0,1.0,60,0.00,,,0.00,,2013-01-28 00:02:00,
2013-01-27 19:11:00,74.0,59.0,30.21,East,80,0.0,1.0,60,0.00,,,0.00,,2013-01-28 00:11:00,
2013-01-27 19:21:00,72.0,58.0,30.22,East,80,0.0,1.0,62,0.00,,,0.00,,2013-01-28 00:21:00,
2013-01-27 19:32:00,72.0,59.0,30.22,East,80,0.0,1.0,63,0.00,,,0.00,,2013-01-28 00:32:00,
2013-01-27 19:42:00,72.0,59.0,30.22,East,80,0.0,1.0,63,0.00,,,0.00,,2013-01-28 00:42:00,
2013-01-27 19:52:00,70.0,59.0,30.23,ENE,69,0.0,3.0,67,0.00,,,0.00,,2013-01-28 00:52:00,
2013-01-27 20:02:00,71.0,60.0,30.23,ENE,64,0.0,3.0,68,0.00,,,0.00,,2013-01-28 01:02:00,
2013-01-27 20:11:00,71.0,60.0,30.23,ENE,64,0.0,3.0,68,0.00,,,0.00,,2013-01-28 01:11:00,
2013-01-27 20:22:00,71.0,60.0,30.24,NE,45,0.0,4.0,68,0.00,,,0.00,,2013-01-28 01:22:00,
2013-01-27 20:33:00,71.0,59.0,30.24,NE,49,1.0,4.0,67,0.00,,,0.00,,2013-01-28 01:33:00,
2013-01-27 20:42:00,71.0,59.0,30.24,NE,49,1.0,4.0,67,0.00,,,0.00,,2013-01-28 01:42:00,
2013-01-27 20:52:00,72.0,61.0,30.24,ESE,102,0.0,3.0,68,0.00,,,0.00,,2013-01-28 01:52:00,
2013-01-27 21:02:00,72.0,61.0,30.24,SSE,157,3.0,4.0,68,0.00,,,0.00,,2013-01-28 02:02:00,
2013-01-27 21:11:00,72.0,61.0,30.24,SSE,157,3.0,4.0,68,0.00,,,0.00,,2013-01-28 02:11:00,
2013-01-27 21:22:00,72.0,61.0,30.24,ENE,61,0.0,4.0,68,0.00,,,0.00,,2013-01-28 02:22:00,
2013-01-27 21:32:00,72.0,61.0,30.24,NNE,23,0.0,4.0,68,0.00,,,0.00,,2013-01-28 02:32:00,
2013-01-27 21:42:00,72.0,61.0,30.24,NNE,23,0.0,4.0,68,0.00,,,0.00,,2013-01-28 02:42:00,
2013-01-27 21:52:00,71.0,60.0,30.25,ESE,119,1.0,7.0,69,0.00,,,0.00,,2013-01-28 02:52:00,
2013-01-27 22:02:00,71.0,60.0,30.25,SSE,149,0.0,7.0,69,0.00,,,0.00,,2013-01-28 03:02:00,
2013-01-27 22:12:00,71.0,60.0,30.25,SSE,149,0.0,7.0,69,0.00,,,0.00,,2013-01-28 03:12:00,
2013-01-27 22:22:00,71.0,61.0,30.25,ENE,59,1.0,1.0,71,0.00,,,0.00,,2013-01-28 03:22:00,
2013-01-27 22:32:00,70.0,60.0,30.25,ESE,119,0.0,3.0,71,0.00,,,0.00,,2013-01-28 03:32:00,
2013-01-27 22:42:00,70.0,60.0,30.25,ESE,119,0.0,3.0,71,0.00,,,0.00,,2013-01-28 03:42:00,
2013-01-27 22:53:00,70.0,61.0,30.24,NE,41,3.0,3.0,72,0.00,,,0.00,,2013-01-28 03:53:00,
2013-01-27 23:02:00,69.0,60.0,30.24,NE,55,1.0,3.0,72,0.00,,,0.00,,2013-01-28 04:02:00,
2013-01-27 23:12:00,69.0,60.0,30.24,NE,55,1.0,3.0,72,0.00,,,0.00,,2013-01-28 04:12:00,
2013-01-27 23:22:00,68.0,59.0,30.24,ENE,60,0.0,1.0,74,0.00,,,0.00,,2013-01-28 04:22:00,
2013-01-27 23:32:00,68.0,60.0,30.24,ENE,65,0.0,1.0,75,0.00,,,0.00,,2013-01-28 04:32:00,
2013-01-27 23:42:00,68.0,60.0,30.24,ENE,65,0.0,1.0,75,0.00,,,0.00,,2013-01-28 04:42:00,
2013-01-27 23:52:00,67.0,60.0,30.24,NE,55,0.0,2.0,77,0.00,,,0.00,,2013-01-28 04:52:00,